Simultaneous Nadir Overpasses (SNOs) Predictions

Prediction of SNOs between NOAA-20 and PACE Satellite Orbit:

Table of predicted SNOs for the next 14.0 days since TLE Epoch: 9/7/2024
Index Date (NOAA-20) Time (NOAA-20) Lat,Lon (NOAA-20) SZA (NOAA-20 ) Date (PACE) Time (PACE) Lat,Lon (PACE) SZA (PACE ) Distance(km) Time Diff (sec)
1 09/07/2024 14:43:25 79.87, -78.40 76.19 09/07/2024 14:43:31 79.87, -78.43 76.19 0.66 6
2 09/09/2024 18:19:07 -80.02, 46.22 102.75 09/09/2024 18:19:56 -80.01, 46.37 102.80 3.14 49
3 09/09/2024 19:09:44 79.79,-144.21 76.84 09/09/2024 19:08:59 79.79,-144.18 76.85 0.67 45
4 09/11/2024 22:45:25 -79.92, -19.36 102.14 09/11/2024 22:45:22 -79.91, -19.20 102.16 3.20 3
5 09/14/2024 02:21:03 79.98, 106.16 78.77 09/14/2024 02:21:42 79.97, 106.29 78.73 2.66 39
6 09/14/2024 03:11:41 -79.76, -84.47 101.61 09/14/2024 03:10:45 -79.76, -84.39 101.60 1.66 56
7 09/16/2024 06:47:19 79.83, 40.98 79.32 09/16/2024 06:47:04 79.84, 40.95 79.34 0.87 15
8 09/18/2024 10:22:57 -79.89, 166.48 99.76 09/18/2024 10:23:21 -79.90, 166.41 99.76 1.43 24
9 09/18/2024 11:13:35 79.69, -24.31 79.89 09/18/2024 11:12:24 79.68, -24.29 79.92 0.71 71
10 09/20/2024 13:58:35 79.98, -68.27 81.21 09/20/2024 13:59:37 79.98, -68.31 81.19 0.96 62



Historial Predications of SNOs between NOAA-20 and PACE
